Home   Weather   Tegucigalpa   Past weeks

Flag for Honduras Past Weather in Tegucigalpa, Honduras — Yesterday and Last 2 Weeks

68 °F

Passing clouds.

Feels Like: 68 °F
Forecast: 63 / 79 °F
Wind: 7 mph from Northeast

Location: Tegucigalpa Airport

Current Time: Oct 23, 2016 at 12:17:33 AM

Latest Report: Oct 22, 2016 at 11:00 PM

Visibility: N/A

Pressure: 30.15 "Hg (26.66 "Hg at 1054m altitude)

Humidity: 94%

Dew Point: 66 °F

Location of TegucigalpaLocation

Past Weather in Tegucigalpa — Graph


Tegucigalpa Temperature Yesterday

Maximum temperature yesterday: 81 °F (at 2:00 PM)
Minimum temperature yesterday: 66 °F (at 4:00 AM)
Average temperature yesterday: 72 °F

High & Low Weather Summary for the Past Weeks

High84 °F (Oct 11, 2:00 PM)100% (Oct 7, 11:00 PM)30.15 "Hg (Oct 7, 11:00 PM)
Low64 °F (Oct 13, 3:00 AM)51% (Oct 12, 1:00 PM)29.89 "Hg (Oct 17, 3:00 PM)
Average72 °F87%30.04 "Hg
* Reported Oct 7 11:00 PM — Oct 22 11:00 PM, Tegucigalpa, Weather by CustomWeather, © 2016

Note: Actual official high and low records may vary slightly from our data, if they occured in-between our weather recording intervals... More about our weather records


Tegucigalpa Weather History for the Previous 24 Hours

Scroll right to see more
Time TempWeatherWind HumidityBarometerVisibility
11:00 PM
Sat, Oct 22
68 °FPassing clouds.7 mph94%30.15 "HgN/A
10:00 PM70 °FPassing clouds.7 mph94%30.15 "HgN/A
9:00 PM70 °FPassing clouds.No wind94%30.15 "HgN/A
8:00 PM70 °FPassing clouds.9 mph88%30.12 "HgN/A
7:00 PM73 °FPassing clouds.5 mph78%30.09 "HgN/A
6:00 PM73 °FPartly cloudy.7 mph78%30.07 "HgN/A
5:00 PM75 °FBroken clouds.12 mph74%30.04 "HgN/A
4:00 PM75 °FBroken clouds.9 mph74%30.04 "HgN/A
3:00 PM77 °FBroken clouds.16 mph65%30.04 "HgN/A
2:00 PM81 °FBroken clouds.16 mph58%30.04 "HgN/A
1:00 PM79 °FScattered clouds.16 mphN/A30.07 "HgN/A
12:00 PM79 °FScattered clouds.14 mph65%30.09 "HgN/A
11:00 AM77 °FScattered clouds.14 mph65%30.09 "HgN/A
10:00 AM73 °FScattered clouds.12 mph69%30.12 "HgN/A
9:00 AM72 °FScattered clouds.9 mph73%30.12 "HgN/A
8:00 AM70 °FPartly sunny.9 mph83%30.09 "HgN/A
7:00 AM66 °FPartly sunny.5 mph94%30.09 "HgN/A
6:00 AM66 °FPartly sunny.9 mph94%30.09 "HgN/A
5:00 AM66 °FPassing clouds.12 mph94%30.07 "HgN/A
4:00 AM66 °FPassing clouds.12 mph94%30.04 "HgN/A
3:00 AM68 °FPartly cloudy.7 mph94%30.04 "HgN/A
2:00 AM68 °FPassing clouds.No wind94%30.04 "HgN/A
1:00 AM68 °FPassing clouds.No wind100%30.07 "HgN/A
12:00 AM68 °FPartly cloudy.No wind100%30.07 "HgN/A
Weather by CustomWeather, © 2016

See weather overviewHow to use our weather pages